Location: ?????????
(41.2393°N, 22.9479°E)
Time: 20:41:36
(UTC+00:00)

Cosmos 1092 Rocket - Pass Details

Date: 17 November 2025
Orbit: 953 x 994 km, 82.9° (Epoch: 11 December)

Event Time Altitude Azimuth Distance (km) Brightness Sun altitude
Rises 17:45:37 0° 350° (N) 3,687 7.1 -29.7°
Reaches altitude 10° 17:48:09 10° 349° (N) 2,729 6.4 -30.1°
Maximum altitude 17:54:23 76° 266° (W) 1,000 4.0 -31.3°
Enters shadow 17:54:58 70° 219° (SW) 1,027 4.1 -31.4°
Exits shadow 18:02:37 - 180° (S) 3,485 6.9 -32.9°
Sets 18:02:59 0° 180° (S) 3,622 7.0 -32.9°
